When you browse on this site, cookies collect data to enhance your experience and personalize the content and advertising you see.
Visit our Privacy Policy to learn more. By continuing to use the site, you agree to this use of cookies and data.
  • In Deutschland
  • Länderverzeichnis
  • Für 7 Tage
  • Wassertemperatur
  • Wetterkarte
  • Widgets
  • user-avatar
    Anmelden

    Stündliche Wetter Amar

    Heute, 21 November, Donnerstag

    Zeit Temperatur Niederschläge Wind Luftdruck Luftfeuchtigkeit
    00:00 +21°C° 0 mm 9 m/S 759 mmHg 39%
    01:00 +21°C° 0 mm 10 m/S 759 mmHg 40%
    02:00 +19°C° 0 mm 10 m/S 758 mmHg 42%
    03:00 +19°C° 0 mm 10 m/S 759 mmHg 43%
    04:00 +19°C° 0 mm 10 m/S 759 mmHg 46%
    05:00 +19°C° 0 mm 10 m/S 760 mmHg 49%
    06:00 +19°C° 0 mm 11 m/S 760 mmHg 52%
    07:00 +19°C° 0 mm 10 m/S 760 mmHg 53%
    08:00 +19°C° 0 mm 10 m/S 760 mmHg 53%
    09:00 +19°C° 0 mm 10 m/S 761 mmHg 54%
    10:00 +21°C° 0 mm 10 m/S 761 mmHg 52%
    11:00 +21°C° 0 mm 9 m/S 761 mmHg 50%
    12:00 +22°C° 0 mm 8 m/S 761 mmHg 48%
    13:00 +22°C° 0 mm 8 m/S 760 mmHg 48%
    14:00 +22°C° 0 mm 9 m/S 760 mmHg 49%
    15:00 +23°C° 0 mm 9 m/S 759 mmHg 49%
    16:00 +23°C° 0 mm 9 m/S 760 mmHg 50%
    17:00 +23°C° 0 mm 8 m/S 760 mmHg 52%
    18:00 +23°C° 0 mm 8 m/S 761 mmHg 53%
    19:00 +23°C° 0 mm 8 m/S 761 mmHg 55%
    20:00 +22°C° 0 mm 7 m/S 761 mmHg 56%
    21:00 +22°C° 0 mm 7 m/S 761 mmHg 58%
    22:00 +22°C° 0 mm 7 m/S 761 mmHg 56%
    23:00 +22°C° 0 mm 6 m/S 761 mmHg 54%

    Morgen, 22 November, Freitag

    Zeit Temperatur Niederschläge Wind Luftdruck Luftfeuchtigkeit
    00:00 +22°C° 0 mm 6 m/S 761 mmHg 52%
    01:00 +22°C° 0 mm 6 m/S 761 mmHg 51%
    02:00 +22°C° 0 mm 6 m/S 761 mmHg 50%
    03:00 +21°C° 0 mm 7 m/S 761 mmHg 50%
    04:00 +21°C° 0 mm 7 m/S 761 mmHg 49%
    05:00 +21°C° 0 mm 7 m/S 762 mmHg 49%
    06:00 +21°C° 0 mm 7 m/S 762 mmHg 49%
    07:00 +21°C° 0 mm 7 m/S 762 mmHg 48%
    08:00 +21°C° 0 mm 6 m/S 762 mmHg 48%
    09:00 +21°C° 0 mm 6 m/S 763 mmHg 47%
    10:00 +22°C° 0 mm 6 m/S 762 mmHg 46%
    11:00 +22°C° 0 mm 5 m/S 762 mmHg 45%
    12:00 +22°C° 0 mm 5 m/S 762 mmHg 44%
    13:00 +23°C° 0 mm 5 m/S 761 mmHg 43%
    14:00 +23°C° 0 mm 5 m/S 761 mmHg 42%
    15:00 +23°C° 0 mm 4 m/S 760 mmHg 41%
    16:00 +23°C° 0 mm 4 m/S 761 mmHg 41%
    17:00 +23°C° 0 mm 4 m/S 761 mmHg 41%
    18:00 +23°C° 0 mm 4 m/S 761 mmHg 41%
    19:00 +24°C° 0 mm 3 m/S 761 mmHg 41%
    20:00 +24°C° 0 mm 3 m/S 761 mmHg 42%
    21:00 +24°C° 0 mm 3 m/S 761 mmHg 43%
    22:00 +24°C° 0 mm 2 m/S 761 mmHg 44%
    23:00 +23°C° 0 mm 2 m/S 761 mmHg 44%

    übermorgen, 23 November, Samstag

    Zeit Temperatur Niederschläge Wind Luftdruck Luftfeuchtigkeit
    00:00 +23°C° 0 mm 2 m/S 761 mmHg 45%
    01:00 +23°C° 0 mm 2 m/S 761 mmHg 47%
    02:00 +23°C° 0 mm 2 m/S 761 mmHg 49%
    03:00 +23°C° 0 mm 2 m/S 760 mmHg 50%
    04:00 +23°C° 0 mm 2 m/S 761 mmHg 51%
    05:00 +23°C° 0 mm 2 m/S 761 mmHg 52%
    06:00 +23°C° 0 mm 2 m/S 761 mmHg 53%
    07:00 +23°C° 0 mm 2 m/S 762 mmHg 52%
    08:00 +23°C° 0 mm 2 m/S 762 mmHg 51%
    09:00 +23°C° 0 mm 2 m/S 762 mmHg 51%
    10:00 +23°C° 0 mm 2 m/S 762 mmHg 49%
    11:00 +23°C° 0 mm 2 m/S 762 mmHg 48%
    12:00 +24°C° 0 mm 2 m/S 761 mmHg 46%
    13:00 +24°C° 0 mm 2 m/S 761 mmHg 44%
    14:00 +24°C° 0 mm 2 m/S 760 mmHg 43%
    15:00 +24°C° 0 mm 2 m/S 760 mmHg 41%
    16:00 +24°C° 0 mm 2 m/S 760 mmHg 42%
    17:00 +24°C° 0 mm 2 m/S 760 mmHg 44%
    18:00 +24°C° 0 mm 3 m/S 761 mmHg 45%
    19:00 +24°C° 0 mm 2 m/S 761 mmHg 45%
    20:00 +24°C° 0 mm 2 m/S 761 mmHg 44%
    21:00 +24°C° 0 mm 2 m/S 761 mmHg 44%
    22:00 +24°C° 0 mm 2 m/S 761 mmHg 44%
    23:00 +24°C° 0 mm 1 m/S 760 mmHg 43%

    24 November, Sonntag

    Zeit Temperatur Niederschläge Wind Luftdruck Luftfeuchtigkeit
    00:00 +24°C° 0 mm 1 m/S 760 mmHg 42%
    01:00 +24°C° 0 mm 1 m/S 760 mmHg 42%
    02:00 +24°C° 0 mm 1 m/S 760 mmHg 42%
    03:00 +21°C° 0 mm 0 m/S 760 mmHg 41%
    04:00 +21°C° 0 mm 0 m/S 760 mmHg 41%
    05:00 +21°C° 0 mm 0 m/S 761 mmHg 41%
    06:00 +21°C° 0 mm 0 m/S 761 mmHg 41%
    07:00 +22°C° 0 mm 0 m/S 761 mmHg 40%
    08:00 +22°C° 0 mm 0 m/S 761 mmHg 40%
    09:00 +22°C° 0 mm 0 m/S 762 mmHg 39%
    10:00 +22°C° 0 mm 0 m/S 761 mmHg 39%
    11:00 +22°C° 0 mm 0 m/S 761 mmHg 39%
    12:00 +22°C° 0 mm 0 m/S 760 mmHg 39%
    13:00 +25°C° 0 mm 1 m/S 760 mmHg 39%
    14:00 +25°C° 0 mm 1 m/S 760 mmHg 39%
    15:00 +25°C° 0 mm 1 m/S 759 mmHg 39%
    16:00 +25°C° 0 mm 2 m/S 759 mmHg 41%
    17:00 +25°C° 0 mm 2 m/S 760 mmHg 42%
    18:00 +25°C° 0 mm 2 m/S 760 mmHg 44%
    19:00 +25°C° 0 mm 2 m/S 760 mmHg 44%
    20:00 +25°C° 0 mm 2 m/S 760 mmHg 45%
    21:00 +24°C° 0 mm 2 m/S 760 mmHg 45%
    22:00 +24°C° 0 mm 2 m/S 760 mmHg 46%
    23:00 +24°C° 0 mm 2 m/S 760 mmHg 47%

    25 November, Montag

    Zeit Temperatur Niederschläge Wind Luftdruck Luftfeuchtigkeit
    00:00 +24°C° 0 mm 2 m/S 759 mmHg 47%
    01:00 +24°C° 0 mm 2 m/S 759 mmHg 48%
    02:00 +24°C° 0 mm 2 m/S 759 mmHg 48%
    03:00 +24°C° 0 mm 2 m/S 759 mmHg 48%
    04:00 +24°C° 0 mm 2 m/S 759 mmHg 47%
    05:00 +24°C° 0 mm 1 m/S 760 mmHg 47%
    06:00 +24°C° 0 mm 1 m/S 760 mmHg 47%
    07:00 +24°C° 0 mm 1 m/S 760 mmHg 48%
    08:00 +24°C° 0 mm 1 m/S 761 mmHg 48%
    09:00 +25°C° 0 mm 2 m/S 761 mmHg 49%
    10:00 +25°C° 0 mm 1 m/S 761 mmHg 49%
    11:00 +25°C° 0 mm 1 m/S 760 mmHg 48%
    12:00 +25°C° 0 mm 1 m/S 760 mmHg 48%
    13:00 +25°C° 0 mm 1 m/S 760 mmHg 47%
    14:00 +25°C° 0 mm 1 m/S 759 mmHg 47%
    15:00 +25°C° 0 mm 1 m/S 759 mmHg 47%
    16:00 +25°C° 0 mm 2 m/S 759 mmHg 48%
    17:00 +25°C° 0 mm 2 m/S 759 mmHg 49%
    18:00 +25°C° 0 mm 3 m/S 759 mmHg 50%
    19:00 +25°C° 0 mm 3 m/S 760 mmHg 51%
    20:00 +25°C° 0 mm 3 m/S 760 mmHg 53%
    21:00 +25°C° 0 mm 4 m/S 760 mmHg 54%
    22:00 +25°C° 0 mm 4 m/S 760 mmHg 54%
    23:00 +25°C° 0 mm 4 m/S 759 mmHg 55%

    26 November, Dienstag

    Zeit Temperatur Niederschläge Wind Luftdruck Luftfeuchtigkeit
    00:00 +25°C° 0 mm 4 m/S 759 mmHg 55%
    01:00 +25°C° 0 mm 3 m/S 759 mmHg 54%
    02:00 +25°C° 0 mm 3 m/S 759 mmHg 54%
    03:00 +25°C° 0 mm 3 m/S 759 mmHg 53%
    04:00 +25°C° 0 mm 3 m/S 759 mmHg 53%
    05:00 +25°C° 0 mm 3 m/S 760 mmHg 54%
    06:00 +25°C° 0 mm 3 m/S 760 mmHg 54%
    07:00 +25°C° 0 mm 3 m/S 760 mmHg 55%
    08:00 +25°C° 0 mm 3 m/S 761 mmHg 55%
    09:00 +25°C° 0 mm 3 m/S 761 mmHg 56%
    10:00 +25°C° 0 mm 3 m/S 760 mmHg 55%
    11:00 +25°C° 0 mm 2 m/S 760 mmHg 53%
    12:00 +26°C° 0 mm 2 m/S 760 mmHg 52%
    13:00 +26°C° 0 mm 2 m/S 759 mmHg 51%
    14:00 +26°C° 0 mm 1 m/S 759 mmHg 50%
    15:00 +26°C° 0 mm 1 m/S 759 mmHg 49%
    16:00 +26°C° 0 mm 2 m/S 759 mmHg 52%
    17:00 +26°C° 0 mm 3 m/S 759 mmHg 54%
    18:00 +26°C° 0 mm 4 m/S 759 mmHg 57%
    19:00 +26°C° 0 mm 5 m/S 759 mmHg 59%
    20:00 +26°C° 0 mm 5 m/S 760 mmHg 60%
    21:00 +26°C° 0 mm 6 m/S 760 mmHg 61%
    22:00 +26°C° 0 mm 6 m/S 760 mmHg 61%
    23:00 +26°C° 0 mm 6 m/S 759 mmHg 62%
    Mehr zeigen